Flag for Mexico Weather past 2 weeks in Playa del Carmen, Quintana Roo, Mexico

Now
72 °F

Passing clouds.


Feels Like: 72 °F
Forecast: 75 / 82 °F
Wind: 9 mph from Northeast

Location: Cozumel Civ / Mil

Current Time: Mar 30, 2015 at 12:03:04 AM

Latest Report: Mar 29, 2015 at 9:53 PM


Visibility: 7 mi

Pressure: 30.19 "Hg

Humidity: 78%

Dew point: 64 °F

Location of Playa del CarmenLocation

Historic Weather in Playa del Carmen — Graph

°F

Playa del Carmen temperature yesterday

Maximum temperature yesterday: 75 °F (at 11:49 AM)
Minimum temperature yesterday: 72 °F (at 12:43 AM)
Average temperature yesterday: 73 °F

Past Weeks' High & Low Weather Summary

 TemperatureHumidityPressure
High84 °F (Mar 18, 3:46 PM)100% (Mar 14, 11:42 PM)30.22 "Hg (Mar 14, 11:42 PM)
Low61 °F (Mar 22, 6:52 AM)55% (Mar 18, 3:46 PM)29.84 "Hg (Mar 20, 3:50 AM)
Average73 °F86%30.04 "Hg
* Reported Mar 14 9:47 PM — Mar 29 9:53 PM, Playa del Carmen, Weather by CustomWeather, © 2015

Note: Actual official high and low records may vary slightly from our data, if they occured in-between our weather recording intervals... More about our weather records

Advertising

Playa del Carmen weather history for previous 24 hours

 ConditionsComfort  
Time TempWeatherWind HumidityBarometerVisibility
9:53 PM
Sun, Mar 29
72 °FPassing clouds.9 mph78%30.19 "Hg7 mi
7:40 PM72 °FPartly cloudy.7 mph78%30.13 "Hg7 mi
6:44 PM72 °FPartly sunny.8 mph78%30.12 "Hg7 mi
2:44 PM75 °FBroken clouds.16 mph69%30.15 "Hg8 mi
1:45 PM75 °FBroken clouds.16 mph74%30.17 "Hg8 mi
12:53 PM75 °FBroken clouds.17 mph74%30.15 "Hg7 mi
11:49 AM75 °FBroken clouds.15 mph69%30.20 "Hg7 mi
10:45 AM73 °FBroken clouds.15 mph74%30.22 "Hg7 mi
9:55 AM73 °FBroken clouds.12 mph74%30.22 "Hg7 mi
8:53 AM72 °FBroken clouds.9 mph78%30.19 "Hg8 mi
7:53 AM72 °FPartly sunny.13 mph83%30.16 "Hg7 mi
6:46 AM72 °FPartly sunny.14 mph83%30.11 "Hg7 mi
5:47 AM72 °FPartly cloudy.13 mph83%30.12 "Hg7 mi
4:47 AM72 °FMostly cloudy.No wind83%30.10 "Hg7 mi
4:01 AM72 °FMostly cloudy.8 mph83%30.12 "Hg7 mi
2:49 AM72 °FMostly cloudy.8 mph83%30.11 "Hg7 mi
1:45 AM72 °FMostly cloudy.12 mph83%30.12 "Hg7 mi
12:43 AM72 °FMostly cloudy.7 mph78%30.12 "Hg7 mi
Weather by CustomWeather, © 2015

See weather overviewHow to use our weather pages